When you browse on this site, cookies collect data to enhance your experience and personalize the content and advertising you see.
Visit our Privacy Policy to learn more. By continuing to use the site, you agree to this use of cookies and data.
  • In Portugal
  • List of Countries
  • For 7 days
  • Water Temperature
  • Satellite Maps
  • Weather Map
  • Weather Widgets
  • user-avatar
    Login

    Hourly Weather Svedskoe

    Today, 18 April, Thursday

    Time Temperature Precipitation Wind Pressure Humidity
    00:00 +7°C° 0 mm 1 mps 761 mmHg 75%
    01:00 +7°C° 0 mm 1 mps 761 mmHg 75%
    02:00 +6°C° 0 mm 1 mps 761 mmHg 75%
    03:00 +5°C° 0 mm 0 mps 761 mmHg 76%
    04:00 +5°C° 0 mm 0 mps 761 mmHg 76%
    05:00 +4°C° 0 mm 0 mps 761 mmHg 77%
    06:00 +6°C° 0 mm 0 mps 761 mmHg 71%
    07:00 +9°C° 0 mm 1 mps 761 mmHg 64%
    08:00 +11°C° 0 mm 1 mps 761 mmHg 58%
    09:00 +12°C° 0 mm 2 mps 761 mmHg 53%
    10:00 +14°C° 0 mm 2 mps 761 mmHg 49%
    11:00 +14°C° 0 mm 3 mps 760 mmHg 44%
    12:00 +16°C° 0 mm 3 mps 760 mmHg 41%
    13:00 +16°C° 0 mm 3 mps 759 mmHg 39%
    14:00 +17°C° 0 mm 4 mps 759 mmHg 36%
    15:00 +17°C° 0 mm 4 mps 758 mmHg 37%
    16:00 +17°C° 0 mm 4 mps 758 mmHg 38%
    17:00 +15°C° 0 mm 5 mps 757 mmHg 39%
    18:00 +14°C° 0 mm 4 mps 757 mmHg 44%
    19:00 +12°C° 0 mm 4 mps 758 mmHg 48%
    20:00 +11°C° 0 mm 4 mps 758 mmHg 53%
    21:00 +10°C° 0 mm 4 mps 758 mmHg 55%
    22:00 +8°C° 0 mm 4 mps 758 mmHg 58%
    23:00 +7°C° 0 mm 4 mps 758 mmHg 61%

    Tomorrow, 19 April, Friday

    Time Temperature Precipitation Wind Pressure Humidity
    00:00 +6°C° 0 mm 4 mps 759 mmHg 62%
    01:00 +5°C° 0 mm 4 mps 759 mmHg 64%
    02:00 +5°C° 0 mm 4 mps 759 mmHg 65%
    03:00 +4°C° 0 mm 4 mps 759 mmHg 67%
    04:00 +4°C° 0 mm 4 mps 759 mmHg 70%
    05:00 +4°C° 0 mm 4 mps 760 mmHg 72%
    06:00 +5°C° 0 mm 5 mps 760 mmHg 68%
    07:00 +6°C° 0 mm 5 mps 760 mmHg 64%
    08:00 +7°C° 0 mm 6 mps 760 mmHg 60%
    09:00 +8°C° 0 mm 5 mps 760 mmHg 55%
    10:00 +10°C° 0 mm 5 mps 760 mmHg 50%
    11:00 +12°C° 0 mm 5 mps 760 mmHg 44%
    12:00 +13°C° 0 mm 5 mps 760 mmHg 42%
    13:00 +13°C° 0 mm 5 mps 760 mmHg 41%
    14:00 +14°C° 0 mm 4 mps 760 mmHg 39%
    15:00 +14°C° 0 mm 4 mps 760 mmHg 40%
    16:00 +13°C° 0 mm 4 mps 760 mmHg 41%
    17:00 +13°C° 0 mm 4 mps 760 mmHg 42%
    18:00 +11°C° 0 mm 3 mps 760 mmHg 46%
    19:00 +10°C° 0 mm 3 mps 761 mmHg 50%
    20:00 +9°C° 0 mm 2 mps 761 mmHg 54%
    21:00 +8°C° 0 mm 2 mps 761 mmHg 56%
    22:00 +9°C° 0 mm 1 mps 761 mmHg 58%
    23:00 +8°C° 0 mm 1 mps 761 mmHg 60%

    Day after tomorrow, 20 April, Saturday

    Time Temperature Precipitation Wind Pressure Humidity
    00:00 +7°C° 0 mm 1 mps 761 mmHg 61%
    01:00 +6°C° 0 mm 0 mps 761 mmHg 62%
    02:00 +5°C° 0 mm 0 mps 760 mmHg 63%
    03:00 +5°C° 0 mm 0 mps 760 mmHg 64%
    04:00 +6°C° 0 mm 1 mps 760 mmHg 64%
    05:00 +6°C° 0 mm 1 mps 760 mmHg 64%
    06:00 +7°C° 0 mm 1 mps 760 mmHg 59%
    07:00 +9°C° 0 mm 1 mps 760 mmHg 54%
    08:00 +11°C° 0 mm 1 mps 760 mmHg 49%
    09:00 +12°C° 0 mm 1 mps 760 mmHg 45%
    10:00 +13°C° 0 mm 1 mps 759 mmHg 42%
    11:00 +14°C° 0 mm 2 mps 759 mmHg 38%
    12:00 +15°C° 0 mm 2 mps 759 mmHg 38%
    13:00 +15°C° 0 mm 2 mps 758 mmHg 39%
    14:00 +15°C° 0 mm 2 mps 758 mmHg 39%
    15:00 +15°C° 0 mm 2 mps 758 mmHg 42%
    16:00 +14°C° 0 mm 2 mps 758 mmHg 45%
    17:00 +14°C° 0 mm 1 mps 757 mmHg 48%
    18:00 +13°C° 0.1 mm 1 mps 757 mmHg 53%
    19:00 +12°C° 0.1 mm 1 mps 757 mmHg 58%
    20:00 +11°C° 0.1 mm 1 mps 757 mmHg 63%
    21:00 +11°C° 0.2 mm 1 mps 757 mmHg 67%
    22:00 +10°C° 0.2 mm 1 mps 757 mmHg 71%
    23:00 +9°C° 0.2 mm 2 mps 757 mmHg 74%

    21 April, Sunday

    Time Temperature Precipitation Wind Pressure Humidity
    00:00 +8°C° 0.2 mm 2 mps 757 mmHg 76%
    01:00 +8°C° 0.2 mm 2 mps 757 mmHg 77%
    02:00 +8°C° 0.2 mm 2 mps 757 mmHg 78%
    03:00 +8°C° 0.1 mm 2 mps 757 mmHg 79%
    04:00 +7°C° 0.1 mm 2 mps 756 mmHg 79%
    05:00 +7°C° 0.1 mm 2 mps 756 mmHg 80%
    06:00 +8°C° 0.1 mm 3 mps 756 mmHg 77%
    07:00 +9°C° 0.1 mm 3 mps 757 mmHg 74%
    08:00 +8°C° 0.1 mm 4 mps 757 mmHg 71%
    09:00 +10°C° 0.2 mm 4 mps 757 mmHg 66%
    10:00 +10°C° 0.2 mm 5 mps 757 mmHg 61%
    11:00 +12°C° 0.2 mm 5 mps 757 mmHg 56%
    12:00 +13°C° 0.1 mm 5 mps 757 mmHg 52%
    13:00 +14°C° 0.1 mm 5 mps 757 mmHg 49%
    14:00 +14°C° 0.1 mm 5 mps 757 mmHg 46%
    15:00 +14°C° 0.1 mm 5 mps 757 mmHg 47%
    16:00 +14°C° 0.1 mm 5 mps 757 mmHg 47%
    17:00 +14°C° 0.1 mm 5 mps 756 mmHg 47%
    18:00 +12°C° 0 mm 5 mps 757 mmHg 51%
    19:00 +11°C° 0 mm 4 mps 757 mmHg 54%
    20:00 +8°C° 0 mm 4 mps 757 mmHg 57%
    21:00 +8°C° 0 mm 4 mps 758 mmHg 59%
    22:00 +8°C° 0 mm 3 mps 758 mmHg 60%
    23:00 +7°C° 0 mm 3 mps 758 mmHg 61%

    22 April, Monday

    Time Temperature Precipitation Wind Pressure Humidity
    00:00 +7°C° 0 mm 3 mps 758 mmHg 64%
    01:00 +5°C° 0 mm 3 mps 759 mmHg 66%
    02:00 +5°C° 0 mm 3 mps 759 mmHg 69%
    03:00 +4°C° 0 mm 3 mps 759 mmHg 69%
    04:00 +4°C° 0 mm 3 mps 759 mmHg 70%
    05:00 +4°C° 0 mm 3 mps 760 mmHg 71%
    06:00 +7°C° 0 mm 3 mps 760 mmHg 64%
    07:00 +9°C° 0 mm 3 mps 760 mmHg 58%
    08:00 +10°C° 0 mm 3 mps 760 mmHg 51%
    09:00 +11°C° 0 mm 4 mps 761 mmHg 46%
    10:00 +12°C° 0 mm 4 mps 761 mmHg 41%
    11:00 +13°C° 0 mm 4 mps 761 mmHg 36%
    12:00 +13°C° 0 mm 4 mps 761 mmHg 37%
    13:00 +14°C° 0 mm 4 mps 761 mmHg 37%
    14:00 +14°C° 0 mm 3 mps 761 mmHg 38%
    15:00 +14°C° 0 mm 3 mps 761 mmHg 39%
    16:00 +14°C° 0 mm 3 mps 761 mmHg 40%
    17:00 +14°C° 0 mm 3 mps 761 mmHg 41%
    18:00 +12°C° 0 mm 3 mps 761 mmHg 46%
    19:00 +12°C° 0 mm 2 mps 761 mmHg 51%
    20:00 +9°C° 0 mm 2 mps 762 mmHg 56%
    21:00 +9°C° 0 mm 2 mps 762 mmHg 57%
    22:00 +8°C° 0 mm 2 mps 762 mmHg 59%
    23:00 +8°C° 0 mm 2 mps 763 mmHg 61%

    23 April, Tuesday

    Time Temperature Precipitation Wind Pressure Humidity
    00:00 +7°C° 0 mm 2 mps 763 mmHg 63%
    01:00 +7°C° 0 mm 2 mps 763 mmHg 65%
    02:00 +6°C° 0 mm 2 mps 763 mmHg 67%
    03:00 +6°C° 0 mm 2 mps 763 mmHg 67%
    04:00 +6°C° 0 mm 2 mps 763 mmHg 67%
    05:00 +6°C° 0 mm 2 mps 764 mmHg 68%
    06:00 +8°C° 0 mm 2 mps 764 mmHg 62%
    07:00 +10°C° 0 mm 2 mps 764 mmHg 56%
    08:00 +12°C° 0 mm 3 mps 764 mmHg 50%
    09:00 +13°C° 0 mm 3 mps 764 mmHg 45%
    10:00 +14°C° 0 mm 3 mps 764 mmHg 41%
    11:00 +15°C° 0 mm 4 mps 764 mmHg 36%
    12:00 +16°C° 0 mm 3 mps 764 mmHg 36%
    13:00 +16°C° 0 mm 3 mps 764 mmHg 36%
    14:00 +16°C° 0 mm 3 mps 763 mmHg 35%
    15:00 +16°C° 0 mm 3 mps 763 mmHg 37%
    16:00 +16°C° 0 mm 3 mps 763 mmHg 38%
    17:00 +16°C° 0 mm 3 mps 762 mmHg 39%
    18:00 +13°C° 0 mm 3 mps 762 mmHg 45%
    19:00 +11°C° 0 mm 3 mps 763 mmHg 51%
    20:00 +10°C° 0 mm 3 mps 763 mmHg 56%
    21:00 +9°C° 0 mm 2 mps 763 mmHg 58%
    22:00 +8°C° 0 mm 2 mps 763 mmHg 60%
    23:00 +8°C° 0 mm 2 mps 763 mmHg 61%
    Show more